Location: Chagrin Falls Park
(41.4139°N, 81.3865°W)
Time: 11:06:29
(UTC+00:00)

X-37B - Pass Details

Date: 03 August 2021
Orbit: 381 x 393 km, 45.0° (Epoch: 29 August)

Event Time Altitude Azimuth Distance (km) Brightness Sun altitude
Exits shadow 09:21:22 15° 262° (W) 1,128 2.4 -10.8°
Maximum altitude 09:23:50 67° 343° (NNW) 417 0.8 -10.4°
Drops below altitude 10° 09:26:58 10° 67° (ENE) 1,399 4.9 -10.0°
Sets 09:29:02 0° 70° (ENE) 2,254 6.3 -9.6°
